,,Stat6,,Stat2,,Stat8,,Stat9,,Stat10,,Wind1,,Wind1,
time,status,PA1M_AVG,status,PR1M_SUM,status,RH1M_AVG,status,SR1M_AVG,status,TA1M_AVG,status,W1dAve1m,status,W1sAve1m,
2004-01-31, 00:00:01,VALID,917.244,VALID,0,VALID,99.1101,VALID,-0.0169808,VALID,19.3577,VALID,143,VALID,1.15909,
2004-01-31, 00:01:00,VALID,917.235,VALID,0,VALID,99.2208,VALID,0,VALID,19.3582,VALID,142,VALID,1.34588,
2004-01-31, 00:02:00,VALID,917.233,VALID,0,VALID,99.2704,VALID,-0.0339617,VALID,19.3614,VALID,142,VALID,1.00391,
2004-01-31, 00:03:00,VALID,917.225,VALID,0.2,VALID,99.2754,VALID,0,VALID,19.3554,VALID,121,VALID,1.40843,
2004-01-31, 00:04:00,VALID,917.234,VALID,0,VALID,99.306,VALID,0,VALID,19.3582,VALID,136,VALID,1.31668,
2004-01-31, 00:05:00,VALID,917.21,VALID,0,VALID,99.3225,VALID,0,VALID,19.346,VALID,143,VALID,1.55915,
2004-01-31, 00:06:01,VALID,917.198,VALID,0.2,VALID,99.3466,VALID,0,VALID,19.3224,VALID,141,VALID,1.04578,
2004-01-31, 00:07:00,VALID,917.193,VALID,0,VALID,99.353,VALID,-0.0169808,VALID,19.3192,VALID,124,VALID,1.36381,
2004-01-31, 00:08:00,VALID,917.186,VALID,0,VALID,99.3314,VALID,0,VALID,19.3326,VALID,122,VALID,1.23419,
2004-01-31, 00:09:00,VALID,917.174,VALID,0,VALID,99.3352,VALID,0,VALID,19.3326,VALID,123,VALID,1.22619,
2004-01-31, 00:10:00,VALID,917.162,VALID,0,VALID,99.3263,VALID,-0.0169808,VALID,19.3291,VALID,128,VALID,1.52188,
2004-01-31, 00:11:00,VALID,917.136,VALID,0.2,VALID,99.278,VALID,0,VALID,19.3361,VALID,119,VALID,1.71801,
2004-01-31, 00:12:01,VALID,917.114,VALID,0,VALID,99.1737,VALID,0,VALID,19.3321,VALID,129,VALID,2.10278,
2004-01-31, 00:13:00,VALID,917.097,VALID,0,VALID,99.0529,VALID,0,VALID,19.3515,VALID,126,VALID,1.53702,
2004-01-31, 00:14:00,VALID,917.097,VALID,0,VALID,98.9804,VALID,0,VALID,19.3679,VALID,142,VALID,1.5278,
2004-01-31, 00:15:00,VALID,917.08,VALID,0,VALID,98.955,VALID,0,VALID,19.3709,VALID,135,VALID,1.2673,
2004-01-31, 00:16:01,VALID,917.073,VALID,0,VALID,98.9614,VALID,0.0169808,VALID,19.3711,VALID,133,VALID,1.24746,
2004-01-31, 00:17:00,VALID,917.05,VALID,0.2,VALID,98.9639,VALID,0,VALID,19.3676,VALID,151,VALID,1.383,
2004-01-31, 00:18:01,VALID,917.02,VALID,0,VALID,98.9982,VALID,0,VALID,19.3644,VALID,147,VALID,1.10434,
2004-01-31, 00:19:00,VALID,917.023,VALID,0,VALID,98.9957,VALID,0.0169808,VALID,19.3743,VALID,145,VALID,1.50298,
2004-01-31, 00:20:00,VALID,917.013,VALID,0,VALID,99.044,VALID,0,VALID,19.3709,VALID,144,VALID,1.11514,
2004-01-31, 00:21:00,VALID,917.008,VALID,0,VALID,99.0656,VALID,0,VALID,19.3584,VALID,148,VALID,1.10938,
2004-01-31, 00:22:00,VALID,916.979,VALID,0,VALID,99.1038,VALID,0,VALID,19.3552,VALID,165,VALID,1.16443,
2004-01-31, 00:23:01,VALID,916.962,VALID,0,VALID,99.1432,VALID,0,VALID,19.3448,VALID,185,VALID,0.966082,
2004-01-31, 00:24:01,VALID,916.944,VALID,0,VALID,99.1953,VALID,0,VALID,19.3676,VALID,117,VALID,0.508557,
2004-01-31, 00:25:00,VALID,916.904,VALID,0,VALID,99.2055,VALID,0,VALID,19.3612,VALID,140,VALID,0.752486,
2004-01-31, 00:26:01,VALID,916.873,VALID,0,VALID,99.1699,VALID,0.0169808,VALID,19.3587,VALID,185,VALID,1.48056,
2004-01-31, 00:27:01,VALID,916.868,VALID,0.2,VALID,99.1635,VALID,0,VALID,19.3416,VALID,155,VALID,0.8879,
2004-01-31, 00:28:00,VALID,916.87,VALID,0,VALID,99.1737,VALID,0.0339617,VALID,19.3418,VALID,158,VALID,1.01882,
2004-01-31, 00:29:01,VALID,916.875,VALID,0,VALID,99.1406,VALID,0.0169808,VALID,19.3358,VALID,150,VALID,1.22166,
2004-01-31, 00:30:01,VALID,916.878,VALID,0,VALID,99.1368,VALID,0,VALID,19.3259,VALID,136,VALID,1.27077,
2004-01-31, 00:31:01,VALID,916.868,VALID,0,VALID,99.1,VALID,0.0169808,VALID,19.3316,VALID,124,VALID,1.69475,
2004-01-31, 00:32:00,VALID,916.87,VALID,0,VALID,99.0669,VALID,0.0169808,VALID,19.3353,VALID,126,VALID,1.12367,
2004-01-31, 00:33:01,VALID,916.889,VALID,0,VALID,99.0555,VALID,0.0169808,VALID,19.3552,VALID,142,VALID,1.15394,
2004-01-31, 00:34:01,VALID,916.885,VALID,0,VALID,99.0364,VALID,0.0339617,VALID,19.345,VALID,128,VALID,1.17133,
2004-01-31, 00:35:00,VALID,916.894,VALID,0,VALID,99.0949,VALID,0,VALID,19.348,VALID,141,VALID,0.809261,
2004-01-31, 00:36:00,VALID,916.884,VALID,0,VALID,99.0885,VALID,0.0339617,VALID,19.3617,VALID,137,VALID,0.867188,
2004-01-31, 00:37:00,VALID,916.878,VALID,0,VALID,99.0364,VALID,0,VALID,19.3485,VALID,120,VALID,1.50872,
2004-01-31, 00:38:00,VALID,916.885,VALID,0,VALID,99.0415,VALID,0.0169808,VALID,19.3383,VALID,153,VALID,1.4335,
2004-01-31, 00:39:00,VALID,916.887,VALID,0,VALID,99.0084,VALID,0.0169808,VALID,19.3453,VALID,139,VALID,1.65075,
2004-01-31, 00:40:00,VALID,916.86,VALID,0,VALID,98.941,VALID,0,VALID,19.3646,VALID,122,VALID,1.65461,
2004-01-31, 00:41:01,VALID,916.842,VALID,0,VALID,98.8838,VALID,0,VALID,19.3642,VALID,126,VALID,1.42223,
2004-01-31, 00:42:01,VALID,916.792,VALID,0,VALID,98.8126,VALID,0,VALID,19.3639,VALID,140,VALID,1.66946,
2004-01-31, 00:43:00,VALID,916.773,VALID,0,VALID,98.7363,VALID,0.0509425,VALID,19.3771,VALID,149,VALID,1.62258,
2004-01-31, 00:44:00,VALID,916.749,VALID,0,VALID,98.707,VALID,0,VALID,19.3932,VALID,154,VALID,1.26209,
2004-01-31, 00:45:01,VALID,916.723,VALID,0,VALID,98.6218,VALID,0.0169808,VALID,19.3937,VALID,113,VALID,1.95642,
2004-01-31, 00:46:00,VALID,916.715,VALID,0,VALID,98.5913,VALID,0,VALID,19.3972,VALID,143,VALID,1.95274,
2004-01-31, 00:47:01,VALID,916.686,VALID,0,VALID,98.5366,VALID,0.0339617,VALID,19.4096,VALID,135,VALID,1.61719,
2004-01-31, 00:48:01,VALID,916.671,VALID,0,VALID,98.5137,VALID,0,VALID,19.4131,VALID,141,VALID,1.50651,
2004-01-31, 00:49:00,VALID,916.675,VALID,0,VALID,98.4718,VALID,0,VALID,19.4131,VALID,154,VALID,1.61217,
2004-01-31, 00:50:01,VALID,916.673,VALID,0,VALID,98.4667,VALID,0,VALID,19.3999,VALID,141,VALID,1.77684,
2004-01-31, 00:51:00,VALID,916.666,VALID,0,VALID,98.5036,VALID,0.0509425,VALID,19.4101,VALID,165,VALID,1.60501,
2004-01-31, 00:52:01,VALID,916.66,VALID,0,VALID,98.4591,VALID,0,VALID,19.4069,VALID,155,VALID,1.36392,
2004-01-31, 00:53:00,VALID,916.666,VALID,0,VALID,98.4387,VALID,0,VALID,19.4002,VALID,139,VALID,1.76486,
2004-01-31, 00:54:01,VALID,916.646,VALID,0,VALID,98.384,VALID,-0.0169808,VALID,19.4004,VALID,165,VALID,1.42847,
2004-01-31, 00:55:01,VALID,916.647,VALID,0,VALID,98.3929,VALID,0,VALID,19.3967,VALID,132,VALID,1.10956,
2004-01-31, 00:56:00,VALID,916.64,VALID,0,VALID,98.3357,VALID,0,VALID,19.3967,VALID,141,VALID,2.22786,
2004-01-31, 00:57:01,VALID,916.621,VALID,0,VALID,98.3344,VALID,0.0169808,VALID,19.4031,VALID,138,VALID,1.69199,
2004-01-31, 00:58:01,VALID,916.599,VALID,0,VALID,98.0979,VALID,-0.0339617,VALID,19.4069,VALID,146,VALID,2.56306,
2004-01-31, 00:59:01,VALID,916.568,VALID,0,VALID,98.0216,VALID,-0.101885,VALID,19.4307,VALID,147,VALID,1.788,
2004-01-31, 01:00:01,VALID,916.538,VALID,0,VALID,97.9746,VALID,-0.0679233,VALID,19.4369,VALID,164,VALID,1.31399,
2004-01-31, 01:01:01,VALID,916.531,VALID,0,VALID,97.9924,VALID,-0.101885,VALID,19.4337,VALID,149,VALID,1.9016,
2004-01-31, 01:02:01,VALID,916.533,VALID,0,VALID,98.0649,VALID,-0.101885,VALID,19.4344,VALID,136,VALID,1.54616,
2004-01-31, 01:03:01,VALID,916.504,VALID,0.2,VALID,98.1412,VALID,-0.101885,VALID,19.4141,VALID,141,VALID,1.504,
2004-01-31, 01:04:01,VALID,916.491,VALID,0,VALID,98.1971,VALID,-0.101885,VALID,19.4014,VALID,145,VALID,1.10938,
2004-01-31, 01:05:01,VALID,916.486,VALID,0,VALID,98.2149,VALID,-0.101885,VALID,19.4019,VALID,134,VALID,2.16988,
2004-01-31, 01:06:01,VALID,916.455,VALID,0,VALID,98.2187,VALID,-0.0679233,VALID,19.3984,VALID,143,VALID,1.48895,
2004-01-31, 01:07:01,VALID,916.433,VALID,0,VALID,98.2404,VALID,-0.118866,VALID,19.3919,VALID,137,VALID,1.22795,
2004-01-31, 01:08:01,VALID,916.409,VALID,0,VALID,98.1908,VALID,-0.101885,VALID,19.3984,VALID,141,VALID,2.10738,
2004-01-31, 01:09:01,VALID,916.366,VALID,0,VALID,98.0623,VALID,-0.0849042,VALID,19.4021,VALID,148,VALID,1.80959,
2004-01-31, 01:10:01,VALID,916.337,VALID,0,VALID,98.0318,VALID,-0.0849042,VALID,19.4016,VALID,152,VALID,1.12035,
2004-01-31, 01:11:01,VALID,916.333,VALID,0,VALID,97.9161,VALID,-0.101885,VALID,19.4148,VALID,145,VALID,1.7254,
2004-01-31, 01:12:01,VALID,916.334,VALID,0,VALID,97.5626,VALID,-0.101885,VALID,19.4275,VALID,135,VALID,1.73121,
2004-01-31, 01:13:01,VALID,916.306,VALID,0,VALID,97.3922,VALID,-0.0509425,VALID,19.469,VALID,140,VALID,1.94288,
2004-01-31, 01:14:01,VALID,916.294,VALID,0,VALID,97.3731,VALID,0,VALID,19.4973,VALID,181,VALID,0.909766,
2004-01-31, 01:15:01,VALID,916.276,VALID,0,VALID,97.3808,VALID,0.0339617,VALID,19.4938,VALID,161,VALID,1.45612,
2004-01-31, 01:16:01,VALID,916.268,VALID,0,VALID,97.4342,VALID,0.0169808,VALID,19.4779,VALID,149,VALID,1.17653,
2004-01-31, 01:17:01,VALID,916.263,VALID,0,VALID,97.5384,VALID,0,VALID,19.4618,VALID,145,VALID,1.19727,
2004-01-31, 01:18:01,VALID,916.262,VALID,0,VALID,97.6872,VALID,0.0339617,VALID,19.4392,VALID,129,VALID,1.46312,
2004-01-31, 01:19:01,VALID,916.266,VALID,0,VALID,97.8182,VALID,0.0339617,VALID,19.4165,VALID,175,VALID,1.16261,
2004-01-31, 01:20:01,VALID,916.261,VALID,0,VALID,97.8131,VALID,0.0169808,VALID,19.4036,VALID,154,VALID,1.29483,
2004-01-31, 01:21:01,VALID,916.266,VALID,0,VALID,97.8474,VALID,0,VALID,19.3935,VALID,172,VALID,0.699023,
2004-01-31, 01:22:01,VALID,916.265,VALID,0,VALID,97.9059,VALID,0,VALID,19.3801,VALID,173,VALID,0.617378,
2004-01-31, 01:23:01,VALID,916.273,VALID,0,VALID,97.8983,VALID,0.0169808,VALID,19.387,VALID,152,VALID,0.634811,
2004-01-31, 01:24:01,VALID,916.28,VALID,0,VALID,97.9008,VALID,0.0339617,VALID,19.3872,VALID,132,VALID,0.874822,
2004-01-31, 01:25:01,VALID,916.254,VALID,0,VALID,97.8538,VALID,0.0679233,VALID,19.3942,VALID,133,VALID,1.32143,
2004-01-31, 01:26:00,VALID,916.239,VALID,0,VALID,97.7902,VALID,0,VALID,19.3843,VALID,148,VALID,1.65705,
2004-01-31, 01:27:00,VALID,916.226,VALID,0,VALID,97.7228,VALID,-0.0169808,VALID,19.3939,VALID,144,VALID,1.73103,
2004-01-31, 01:28:00,VALID,916.236,VALID,0,VALID,97.6529,VALID,0,VALID,19.4069,VALID,143,VALID,1.01207,
2004-01-31, 01:29:00,VALID,916.229,VALID,0,VALID,97.6274,VALID,0,VALID,19.4069,VALID,133,VALID,1.109,
2004-01-31, 01:30:00,VALID,916.22,VALID,0,VALID,97.4977,VALID,-0.0169808,VALID,19.4133,VALID,125,VALID,1.38494,
2004-01-31, 01:31:00,VALID,916.197,VALID,0,VALID,97.3922,VALID,-0.0339617,VALID,19.4262,VALID,131,VALID,1.72396,
2004-01-31, 01:32:00,VALID,916.21,VALID,0.2,VALID,97.2625,VALID,0,VALID,19.4392,VALID,135,VALID,1.25959,
2004-01-31, 01:33:00,VALID,916.191,VALID,0,VALID,97.2129,VALID,0,VALID,19.4454,VALID,141,VALID,1.76726,
2004-01-31, 01:34:00,VALID,916.179,VALID,0,VALID,97.1569,VALID,0,VALID,19.4488,VALID,134,VALID,1.92597,
2004-01-31, 01:35:00,VALID,916.197,VALID,0,VALID,97.2587,VALID,-0.0169808,VALID,19.4518,VALID,126,VALID,1.54913,
2004-01-31, 01:36:00,VALID,916.177,VALID,0,VALID,97.3413,VALID,0,VALID,19.4523,VALID,135,VALID,2.21953,
2004-01-31, 01:37:00,VALID,916.212,VALID,0,VALID,97.4672,VALID,0,VALID,19.4359,VALID,144,VALID,1.73152,
2004-01-31, 01:38:00,VALID,916.218,VALID,0,VALID,97.4977,VALID,0.0169808,VALID,19.4131,VALID,137,VALID,2.38579,
2004-01-31, 01:39:00,VALID,916.222,VALID,0,VALID,97.4189,VALID,0,VALID,19.423,VALID,130,VALID,1.62553,
2004-01-31, 01:40:00,VALID,916.223,VALID,0.2,VALID,97.4748,VALID,0,VALID,19.4362,VALID,127,VALID,1.71548,
2004-01-31, 01:41:00,VALID,916.226,VALID,0,VALID,97.5804,VALID,-0.0339617,VALID,19.4327,VALID,128,VALID,2.22713,
2004-01-31, 01:42:00,VALID,916.223,VALID,0,VALID,97.7304,VALID,0,VALID,19.42,VALID,155,VALID,1.72443,
2004-01-31, 01:43:00,VALID,916.23,VALID,0,VALID,97.869,VALID,-0.0169808,VALID,19.3905,VALID,143,VALID,2.02288,
2004-01-31, 01:44:00,VALID,916.234,VALID,0.2,VALID,97.9886,VALID,-0.0339617,VALID,19.3808,VALID,139,VALID,2.39101,
2004-01-31, 01:45:00,VALID,916.214,VALID,0,VALID,97.9797,VALID,0,VALID,19.3709,VALID,146,VALID,2.79119,
2004-01-31, 01:46:00,VALID,916.219,VALID,0,VALID,97.967,VALID,-0.0339617,VALID,19.3778,VALID,138,VALID,1.75305,
2004-01-31, 01:47:00,VALID,916.19,VALID,0,VALID,97.9059,VALID,-0.0509425,VALID,19.3845,VALID,152,VALID,2.35423,
2004-01-31, 01:48:00,VALID,916.18,VALID,0,VALID,97.8919,VALID,-0.0509425,VALID,19.3907,VALID,176,VALID,2.10807,
2004-01-31, 01:49:00,VALID,916.176,VALID,0,VALID,97.8525,VALID,-0.0169808,VALID,19.4036,VALID,172,VALID,1.08557,
2004-01-31, 01:50:00,VALID,916.156,VALID,0.2,VALID,97.9453,VALID,-0.0169808,VALID,19.4267,VALID,161,VALID,0.606399,
2004-01-31, 01:51:00,VALID,916.152,VALID,0,VALID,97.972,VALID,0,VALID,19.4101,VALID,151,VALID,0.941493,
2004-01-31, 01:52:00,VALID,916.129,VALID,0,VALID,98,VALID,0,VALID,19.3974,VALID,174,VALID,1.30344,
2004-01-31, 01:53:00,VALID,916.111,VALID,0,VALID,97.8843,VALID,0,VALID,19.3843,VALID,149,VALID,1.55376,
2004-01-31, 01:54:00,VALID,916.105,VALID,0,VALID,97.8958,VALID,-0.0169808,VALID,19.3907,VALID,142,VALID,1.38652,
2004-01-31, 01:55:00,VALID,916.096,VALID,0,VALID,97.8233,VALID,0,VALID,19.3843,VALID,145,VALID,1.54306,
2004-01-31, 01:56:00,VALID,916.094,VALID,0,VALID,97.8449,VALID,0,VALID,19.3875,VALID,141,VALID,1.16287,
2004-01-31, 01:57:00,VALID,916.089,VALID,0,VALID,97.9021,VALID,0,VALID,19.3778,VALID,141,VALID,0.732515,
2004-01-31, 01:58:00,VALID,916.072,VALID,0,VALID,97.9937,VALID,-0.0169808,VALID,19.3686,VALID,177,VALID,0.995593,
2004-01-31, 01:59:00,VALID,916.068,VALID,0,VALID,98.0636,VALID,0,VALID,19.355,VALID,149,VALID,0.85026,
2004-01-31, 02:00:00,VALID,916.064,VALID,0,VALID,98.0204,VALID,0,VALID,19.3587,VALID,142,VALID,1.31816,
2004-01-31, 02:01:00,VALID,916.042,VALID,0,VALID,97.9212,VALID,0,VALID,19.3587,VALID,135,VALID,1.57533,
2004-01-31, 02:02:00,VALID,916.063,VALID,0,VALID,97.8576,VALID,0,VALID,19.3688,VALID,170,VALID,0.983445,
2004-01-31, 02:03:00,VALID,916.069,VALID,0,VALID,97.8703,VALID,-0.0339617,VALID,19.3746,VALID,160,VALID,1.02816,
2004-01-31, 02:04:00,VALID,916.075,VALID,0,VALID,97.8932,VALID,-0.0339617,VALID,19.3751,VALID,159,VALID,1.15075,
2004-01-31, 02:05:00,VALID,916.11,VALID,0,VALID,97.9174,VALID,-0.0169808,VALID,19.3649,VALID,147,VALID,1.53125,
2004-01-31, 02:06:00,VALID,916.124,VALID,0.2,VALID,97.9797,VALID,0,VALID,19.3684,VALID,144,VALID,1.45437,
2004-01-31, 02:07:00,VALID,916.135,VALID,0,VALID,97.9911,VALID,0,VALID,19.3621,VALID,114,VALID,1.49143,
2004-01-31, 02:08:00,VALID,916.154,VALID,0,VALID,98,VALID,0,VALID,19.345,VALID,112,VALID,1.44077,
2004-01-31, 02:09:00,VALID,916.146,VALID,0,VALID,97.8919,VALID,0.0169808,VALID,19.3552,VALID,129,VALID,3.66908,
2004-01-31, 02:10:00,VALID,916.19,VALID,0,VALID,97.8017,VALID,0,VALID,19.381,VALID,134,VALID,2.55957,
2004-01-31, 02:11:00,VALID,916.197,VALID,0,VALID,97.7292,VALID,0.0169808,VALID,19.3776,VALID,116,VALID,2.38772,
2004-01-31, 02:12:00,VALID,916.205,VALID,0,VALID,97.7177,VALID,0,VALID,19.3939,VALID,113,VALID,1.68304,
2004-01-31, 02:13:00,VALID,916.219,VALID,0,VALID,97.761,VALID,-0.0509425,VALID,19.3882,VALID,122,VALID,1.76677,
2004-01-31, 02:14:00,VALID,916.229,VALID,0,VALID,97.7864,VALID,-0.101885,VALID,19.3686,VALID,109,VALID,1.83457,
2004-01-31, 02:15:00,VALID,916.245,VALID,0,VALID,97.7444,VALID,-0.101885,VALID,19.3691,VALID,108,VALID,1.84268,
2004-01-31, 02:16:00,VALID,916.243,VALID,0,VALID,97.7012,VALID,-0.101885,VALID,19.3758,VALID,139,VALID,2.31008,
2004-01-31, 02:17:00,VALID,916.269,VALID,0,VALID,97.616,VALID,-0.101885,VALID,19.389,VALID,108,VALID,1.64922,
2004-01-31, 02:18:00,VALID,916.278,VALID,0.2,VALID,97.6313,VALID,-0.0849042,VALID,19.3919,VALID,68,VALID,2.0787,
2004-01-31, 02:19:00,VALID,916.293,VALID,0,VALID,97.6236,VALID,-0.101885,VALID,19.3887,VALID,118,VALID,2.41868,
2004-01-31, 02:20:00,VALID,916.321,VALID,0,VALID,97.6898,VALID,-0.101885,VALID,19.389,VALID,111,VALID,1.79287,
2004-01-31, 02:21:00,VALID,916.317,VALID,0,VALID,97.7482,VALID,-0.101885,VALID,19.3696,VALID,106,VALID,2.17801,
2004-01-31, 02:22:00,VALID,916.341,VALID,0,VALID,97.7877,VALID,-0.101885,VALID,19.3696,VALID,119,VALID,2.02441,
2004-01-31, 02:23:00,VALID,916.33,VALID,0,VALID,97.7381,VALID,-0.118866,VALID,19.3634,VALID,105,VALID,1.91825,
2004-01-31, 02:24:00,VALID,916.347,VALID,0,VALID,97.7419,VALID,-0.101885,VALID,19.383,VALID,97,VALID,1.38372,
2004-01-31, 02:25:00,VALID,916.363,VALID,0,VALID,97.7254,VALID,-0.135847,VALID,19.3698,VALID,94,VALID,1.51406,
2004-01-31, 02:26:00,VALID,916.364,VALID,0,VALID,97.6096,VALID,-0.118866,VALID,19.3631,VALID,102,VALID,1.62823,
2004-01-31, 02:27:00,VALID,916.381,VALID,0,VALID,97.5842,VALID,-0.101885,VALID,19.3795,VALID,77,VALID,1.68155,
2004-01-31, 02:28:00,VALID,916.384,VALID,0,VALID,97.4761,VALID,-0.0509425,VALID,19.3852,VALID,104,VALID,1.71944,
2004-01-31, 02:29:00,VALID,916.381,VALID,0,VALID,97.3566,VALID,0,VALID,19.3937,VALID,117,VALID,1.52043,
2004-01-31, 02:30:00,VALID,916.362,VALID,0,VALID,97.2688,VALID,0,VALID,19.3905,VALID,101,VALID,1.59394,
2004-01-31, 02:31:00,VALID,916.362,VALID,0,VALID,97.0984,VALID,0,VALID,19.4103,VALID,116,VALID,1.98118,
2004-01-31, 02:32:00,VALID,916.346,VALID,0,VALID,96.8136,VALID,0,VALID,19.4228,VALID,126,VALID,2.20215,
2004-01-31, 02:33:00,VALID,916.35,VALID,0,VALID,96.6419,VALID,0.0169808,VALID,19.4548,VALID,122,VALID,1.79288,
2004-01-31, 02:34:00,VALID,916.365,VALID,0,VALID,96.4334,VALID,0.0169808,VALID,19.4811,VALID,124,VALID,1.85528,
2004-01-31, 02:35:00,VALID,916.354,VALID,0,VALID,96.2287,VALID,0.0169808,VALID,19.4973,VALID,121,VALID,1.85996,
2004-01-31, 02:36:00,VALID,916.344,VALID,0,VALID,96.0875,VALID,0.0339617,VALID,19.5132,VALID,139,VALID,1.49618,
2004-01-31, 02:37:00,VALID,916.315,VALID,0,VALID,96.0786,VALID,0.0169808,VALID,19.5296,VALID,119,VALID,1.46378,
2004-01-31, 02:38:00,VALID,916.316,VALID,0,VALID,96.1486,VALID,0,VALID,19.5465,VALID,94,VALID,1.03106,
2004-01-31, 02:39:00,VALID,916.296,VALID,0,VALID,96.3431,VALID,0,VALID,19.5134,VALID,77,VALID,1.08251,
2004-01-31, 02:40:00,VALID,916.297,VALID,0,VALID,96.5924,VALID,0,VALID,19.4844,VALID,75,VALID,0.971475,
2004-01-31, 02:41:00,VALID,916.287,VALID,0,VALID,96.7704,VALID,0.0169808,VALID,19.4618,VALID,128,VALID,1.08445,
2004-01-31, 02:42:00,VALID,916.275,VALID,0,VALID,96.7411,VALID,0.0169808,VALID,19.4421,VALID,128,VALID,1.46966,
2004-01-31, 02:43:00,VALID,916.277,VALID,0,VALID,96.7259,VALID,-0.0169808,VALID,19.4327,VALID,136,VALID,1.35451,
2004-01-31, 02:44:00,VALID,916.276,VALID,0,VALID,96.633,VALID,-0.0849042,VALID,19.4401,VALID,148,VALID,1.20122,
2004-01-31, 02:45:00,VALID,916.254,VALID,0,VALID,96.5784,VALID,-0.0849042,VALID,19.4401,VALID,148,VALID,0.887649,
2004-01-31, 02:46:00,VALID,916.249,VALID,0,VALID,96.5275,VALID,-0.0679233,VALID,19.4429,VALID,133,VALID,0.976749,
2004-01-31, 02:47:00,VALID,916.25,VALID,0,VALID,96.4728,VALID,-0.0849042,VALID,19.4434,VALID,117,VALID,0.919389,
2004-01-31, 02:48:00,VALID,916.24,VALID,0,VALID,96.4232,VALID,-0.0679233,VALID,19.4503,VALID,107,VALID,0.90253,
2004-01-31, 02:49:00,VALID,916.244,VALID,0,VALID,96.4614,VALID,-0.0679233,VALID,19.4371,VALID,75,VALID,1.05711,
2004-01-31, 02:50:00,VALID,916.24,VALID,0,VALID,96.5835,VALID,-0.0679233,VALID,19.4242,VALID,67,VALID,1.05393,
2004-01-31, 02:51:00,VALID,916.224,VALID,0,VALID,96.6165,VALID,-0.101885,VALID,19.425,VALID,102,VALID,1.03715,
2004-01-31, 02:52:00,VALID,916.206,VALID,0,VALID,96.6267,VALID,-0.0849042,VALID,19.4116,VALID,98,VALID,1.22293,
2004-01-31, 02:53:00,VALID,916.204,VALID,0,VALID,96.6076,VALID,-0.0509425,VALID,19.418,VALID,69,VALID,1.45579,
2004-01-31, 02:54:00,VALID,916.205,VALID,0,VALID,96.4894,VALID,-0.0849042,VALID,19.4205,VALID,72,VALID,1.5714,
2004-01-31, 02:55:00,VALID,916.196,VALID,0,VALID,96.3228,VALID,-0.0849042,VALID,19.4401,VALID,89,VALID,1.30859,
2004-01-31, 02:56:00,VALID,916.173,VALID,0,VALID,96.1778,VALID,-0.0679233,VALID,19.46,VALID,132,VALID,0.889063,
2004-01-31, 02:57:00,VALID,916.178,VALID,0,VALID,96.1091,VALID,-0.0849042,VALID,19.4694,VALID,118,VALID,1.20926,
2004-01-31, 02:58:00,VALID,916.197,VALID,0,VALID,96.1282,VALID,-0.0339617,VALID,19.4851,VALID,77,VALID,1.54776,
2004-01-31, 02:59:00,VALID,916.172,VALID,0,VALID,96.1333,VALID,0.0509425,VALID,19.4513,VALID,68,VALID,1.63262,
2004-01-31, 03:00:00,VALID,916.169,VALID,0,VALID,96.1969,VALID,0.0169808,VALID,19.4454,VALID,79,VALID,1.01143,
2004-01-31, 03:01:00,VALID,916.153,VALID,0,VALID,96.0824,VALID,0.0169808,VALID,19.4518,VALID,82,VALID,1.62443,
2004-01-31, 03:02:00,VALID,916.159,VALID,0,VALID,95.9031,VALID,0.0169808,VALID,19.5035,VALID,99,VALID,1.51823,
2004-01-31, 03:03:00,VALID,916.153,VALID,0,VALID,95.706,VALID,0,VALID,19.5425,VALID,82,VALID,1.37274,
2004-01-31, 03:04:00,VALID,916.138,VALID,0,VALID,95.6386,VALID,0.0169808,VALID,19.5648,VALID,97,VALID,1.30202,
2004-01-31, 03:05:00,VALID,916.127,VALID,0,VALID,95.0385,VALID,0.0339617,VALID,19.5907,VALID,126,VALID,2.58993,
2004-01-31, 03:06:00,VALID,916.128,VALID,0,VALID,93.4489,VALID,0.0339617,VALID,19.7136,VALID,105,VALID,1.83718,
2004-01-31, 03:07:00,VALID,916.111,VALID,0,VALID,93.1425,VALID,0.0169808,VALID,19.8749,VALID,88,VALID,1.47266,
2004-01-31, 03:08:00,VALID,916.118,VALID,0,VALID,93.4006,VALID,0.0169808,VALID,19.9265,VALID,89,VALID,1.20476,
2004-01-31, 03:09:00,VALID,916.115,VALID,0,VALID,93.7452,VALID,0.0169808,VALID,19.8975,VALID,87,VALID,0.980824,
2004-01-31, 03:10:00,VALID,916.106,VALID,0,VALID,94.1788,VALID,0,VALID,19.8361,VALID,108,VALID,0.720703,
2004-01-31, 03:11:00,VALID,916.102,VALID,0,VALID,94.5858,VALID,0.0169808,VALID,19.7844,VALID,89,VALID,1.09319,
2004-01-31, 03:12:00,VALID,916.105,VALID,0,VALID,94.8846,VALID,0.0169808,VALID,19.7365,VALID,89,VALID,1.23103,
2004-01-31, 03:13:00,VALID,916.102,VALID,0,VALID,95.0372,VALID,-0.0169808,VALID,19.6756,VALID,94,VALID,1.31729,
2004-01-31, 03:14:00,VALID,916.094,VALID,0,VALID,95.2139,VALID,-0.0509425,VALID,19.6476,VALID,95,VALID,1.00038,
2004-01-31, 03:15:00,VALID,916.079,VALID,0,VALID,95.2381,VALID,-0.0679233,VALID,19.6215,VALID,97,VALID,1.32031,
2004-01-31, 03:16:00,VALID,916.087,VALID,0,VALID,95.4059,VALID,-0.101885,VALID,19.614,VALID,75,VALID,1.32153,
2004-01-31, 03:17:00,VALID,916.083,VALID,0,VALID,95.6298,VALID,-0.0679233,VALID,19.6118,VALID,76,VALID,1.03234,
2004-01-31, 03:18:00,VALID,916.071,VALID,0,VALID,95.8663,VALID,-0.0509425,VALID,19.5892,VALID,97,VALID,0.790179,
2004-01-31, 03:19:00,VALID,916.043,VALID,0,VALID,96.0964,VALID,-0.101885,VALID,19.5338,VALID,125,VALID,0.437891,
2004-01-31, 03:20:00,VALID,916.033,VALID,0,VALID,96.3342,VALID,-0.0849042,VALID,19.5142,VALID,120,VALID,1.01332,
2004-01-31, 03:21:00,VALID,916.013,VALID,0,VALID,96.5224,VALID,-0.0509425,VALID,19.4985,VALID,95,VALID,1.07649,
2004-01-31, 03:22:00,VALID,915.979,VALID,0,VALID,96.6102,VALID,-0.0509425,VALID,19.4627,VALID,125,VALID,1.70876,
2004-01-31, 03:23:00,VALID,915.985,VALID,0,VALID,96.6254,VALID,-0.0679233,VALID,19.4565,VALID,100,VALID,1.2197,
2004-01-31, 03:24:00,VALID,915.979,VALID,0,VALID,96.7119,VALID,-0.0509425,VALID,19.4431,VALID,69,VALID,0.725195,
2004-01-31, 03:25:00,VALID,915.976,VALID,0,VALID,96.853,VALID,-0.0679233,VALID,19.4272,VALID,109,VALID,0.840892,
2004-01-31, 03:26:00,VALID,915.98,VALID,0,VALID,96.9446,VALID,-0.101885,VALID,19.3984,VALID,110,VALID,1.01243,
2004-01-31, 03:27:00,VALID,915.982,VALID,0,VALID,96.9916,VALID,-0.0339617,VALID,19.3721,VALID,118,VALID,0.862233,
2004-01-31, 03:28:00,VALID,915.981,VALID,0,VALID,97.1391,VALID,-0.0339617,VALID,19.3596,VALID,125,VALID,1.07236,
2004-01-31, 03:29:00,VALID,915.979,VALID,0,VALID,97.2053,VALID,-0.0509425,VALID,19.3398,VALID,105,VALID,1.10831,
2004-01-31, 03:30:00,VALID,915.966,VALID,0,VALID,97.2574,VALID,-0.0849042,VALID,19.3174,VALID,105,VALID,1.05895,
2004-01-31, 03:31:00,VALID,915.942,VALID,0,VALID,97.3986,VALID,-0.0509425,VALID,19.3244,VALID,106,VALID,0.748172,
2004-01-31, 03:32:00,VALID,915.92,VALID,0,VALID,97.4062,VALID,-0.0679233,VALID,19.3075,VALID,99,VALID,0.82984,
2004-01-31, 03:33:00,VALID,915.903,VALID,0,VALID,97.4138,VALID,-0.0849042,VALID,19.3177,VALID,121,VALID,1.14471,
2004-01-31, 03:34:00,VALID,915.879,VALID,0,VALID,97.4278,VALID,-0.0849042,VALID,19.3144,VALID,139,VALID,0.842361,
2004-01-31, 03:35:00,VALID,915.843,VALID,0,VALID,97.513,VALID,-0.0849042,VALID,19.3112,VALID,138,VALID,0.90067,
2004-01-31, 03:36:00,VALID,915.836,VALID,0,VALID,97.4189,VALID,-0.101885,VALID,19.3144,VALID,94,VALID,1.05238,
2004-01-31, 03:37:00,VALID,915.828,VALID,0,VALID,97.3451,VALID,-0.101885,VALID,19.3047,VALID,84,VALID,1.2603,